User: anonymous   Login
Location: Unspecified
(0.0000°N, 0.0000°E)
Time: 20:40:46
(UTC+00:00)
Language:

COSMOS 2498 - Orbit

View from above orbital plane
View from above orbital plane
View from above satellite
View from above satellite

Ground track
Ground track

The orbit data is extracted from the following two-line orbital elements,

1 39763U 14028C   17172.68937385 +.00000010 +00000-0 +00000-0 0  9991
2 39763 082.4460 004.8507 0021545 024.2107 335.9979 12.42896563139814
Epoch (UTC): 21 June 2017 16:32:41
Eccentricity: 0.0021545
inclination: 82.4460°
perigee height: 1477 km
apogee height: 1511 km
right ascension of ascending node: 4.8507°
argument of perigee: 24.2107°
revolutions per day: 12.42896563
mean anomaly at epoch: 335.9979°
orbit number at epoch: 13981

The dashed part of the orbit path shows where the satellite is in the earth's shadow,  

DLR